Date String (YYYY-MM-DD hh:mm:ss) UTC,Instrument flags,Ambient pressure (hPa),Sample flow (lpm),Bypass flow (lpm),Sample temperature (°C),Ambient temperature (°C),ASC tube jacket temperature (°C),LED temperature (°C),Box temperature (°C),Sample RH (%),Span deviation,Mass concentration (μg/m³),Mass concentration (μg/m³),Mass concentration (μg/m³)
DateTimeUTC,F1_M11,P_M11,Q1_M11,Q2_M11,T1_M11,T2_M11,T3_M11,T4_M11,T5_M11,U1_M11,ZSPAN_M11,X2_M11,X0_M11,X1_M11
2021-11-16 11:00:00,,0818.9,5.00,0.00,29.8,29.0,00.0,38.9,31.5,08.7,0000.0,0000.41,0000.86,0000.26
2021-11-16 11:01:00,,0818.9,4.99,0.00,29.8,29.0,00.0,38.9,31.5,08.7,0000.0,0000.43,0000.95,0000.27
2021-11-16 11:02:00,,0818.8,5.01,0.00,29.8,29.0,00.0,38.9,31.4,08.8,0000.0,0000.46,0001.08,0000.28
2021-11-16 11:03:00,,0818.9,4.99,0.00,29.8,29.0,00.0,38.9,31.4,08.8,0000.0,0000.46,0001.05,0000.29
2021-11-16 11:04:00,,0818.9,4.99,0.00,29.8,29.0,00.0,38.9,31.4,08.8,0000.0,0000.47,0001.12,0000.29
2021-11-16 11:05:00,,0819.0,5.01,0.00,29.8,29.0,00.0,38.9,31.4,08.7,0000.0,0000.47,0001.13,0000.29
2021-11-16 11:06:00,,0819.1,4.99,0.00,29.8,29.0,00.0,38.9,31.4,08.8,0000.0,0000.50,0001.21,0000.29
2021-11-16 11:07:00,,0819.1,4.99,0.00,29.7,28.9,00.0,38.9,31.4,08.8,0000.0,0000.53,0001.35,0000.29
2021-11-16 11:08:00,,0819.2,5.00,0.00,29.7,28.9,00.0,38.8,31.4,08.7,0000.0,0000.54,0001.84,0000.30
2021-11-16 11:09:00,,0818.9,5.00,0.00,29.7,28.9,00.0,38.8,31.4,08.5,0000.0,0000.56,0002.21,0000.29
2021-11-16 11:10:00,,0818.9,5.00,0.00,29.7,28.9,00.0,38.8,31.4,08.5,0000.0,0000.53,0002.12,0000.29
2021-11-16 11:11:00,,0819.0,5.02,0.00,29.7,28.9,00.0,38.8,31.3,08.3,0000.0,0000.52,0002.51,0000.29
2021-11-16 11:12:00,,0819.0,4.98,0.00,29.7,28.9,00.0,38.8,31.3,08.3,0000.0,0000.51,0003.27,0000.29
2021-11-16 11:13:00,,0818.9,5.01,0.00,29.7,28.9,00.0,38.8,31.3,08.4,0000.0,0000.50,0003.19,0000.29
2021-11-16 11:14:00,,0818.9,5.00,0.00,29.7,28.9,00.0,38.8,31.3,08.6,0000.0,0000.51,0003.22,0000.29
2021-11-16 11:15:00,,0818.9,5.00,0.00,29.7,28.8,00.0,38.8,31.4,08.5,0000.0,0000.48,0003.02,0000.29
2021-11-16 11:16:00,,0819.0,5.00,0.00,29.7,28.8,00.0,38.8,31.4,08.4,0000.0,0000.48,0003.03,0000.29
2021-11-16 11:17:00,,0818.8,5.01,0.00,29.6,28.8,00.0,38.8,31.3,08.4,0000.0,0000.45,0002.96,0000.29
2021-11-16 11:18:00,,0818.9,4.99,0.00,29.6,28.8,00.0,38.8,31.3,08.5,0000.0,0000.43,0002.95,0000.29
2021-11-16 11:19:00,,0818.9,5.01,0.00,29.6,28.8,00.0,38.8,31.3,08.5,0000.0,0000.42,0002.52,0000.29
2021-11-16 11:20:00,,0819.0,5.00,0.00,29.6,28.8,00.0,38.7,31.3,08.5,0000.0,0000.40,0002.08,0000.29
2021-11-16 11:21:00,,0819.0,4.99,0.00,29.6,28.8,00.0,38.7,31.3,08.5,0000.0,0000.41,0002.05,0000.29
2021-11-16 11:22:00,,0819.0,4.99,0.00,29.6,28.8,00.0,38.7,31.3,08.5,0000.0,0000.39,0002.39,0000.28
2021-11-16 11:23:00,,0818.8,5.01,0.00,29.6,28.8,00.0,38.7,31.3,08.6,0000.0,0000.39,0001.62,0000.28
2021-11-16 11:24:00,,0818.8,5.00,0.00,29.6,28.8,00.0,38.7,31.3,08.6,0000.0,0000.42,0001.69,0000.28
2021-11-16 11:25:00,,0819.1,5.00,0.00,29.6,28.8,00.0,38.7,31.3,08.7,0000.0,0000.41,0001.66,0000.27
2021-11-16 11:26:00,,0819.0,5.01,0.00,29.6,28.8,00.0,38.7,31.3,08.7,0000.0,0000.40,0001.65,0000.27
2021-11-16 11:27:00,,0819.0,5.00,0.00,29.6,28.8,00.0,38.7,31.3,08.7,0000.0,0000.39,0001.61,0000.27
2021-11-16 11:28:00,,0818.7,5.01,0.00,29.6,28.9,00.0,38.7,31.3,08.7,0000.0,0000.40,0001.65,0000.27
2021-11-16 11:29:00,,0818.6,5.00,0.00,29.6,28.9,00.0,38.7,31.4,08.7,0000.0,0000.40,0001.51,0000.27
2021-11-16 11:30:00,,0818.7,4.99,0.00,29.6,28.9,00.0,38.7,31.4,08.6,0000.0,0000.40,0001.53,0000.26
2021-11-16 11:31:00,,0818.5,4.99,0.00,29.6,28.9,00.0,38.7,31.3,08.6,0000.0,0000.41,0001.55,0000.26
2021-11-16 11:32:00,,0818.1,5.00,0.00,29.6,28.8,00.0,38.7,31.4,08.3,0000.0,0000.44,0002.12,0000.27
2021-11-16 11:33:00,,0818.2,5.00,0.00,29.6,28.8,00.0,38.7,31.4,08.4,0000.0,0000.47,0002.13,0000.27
2021-11-16 11:34:00,,0818.2,5.00,0.00,29.6,28.7,00.0,38.7,31.4,08.4,0000.0,0000.49,0002.17,0000.27
2021-11-16 11:35:00,,0818.2,5.00,0.00,29.6,28.7,00.0,38.7,31.4,08.2,0000.0,0000.49,0003.27,0000.27
2021-11-16 11:36:00,,0818.3,5.00,0.00,29.7,28.7,00.0,38.7,31.4,08.1,0000.0,0000.49,0003.37,0000.27
2021-11-16 11:37:00,,0818.5,5.01,0.00,29.6,28.7,00.0,38.7,31.3,08.1,0000.0,0000.51,0003.42,0000.28
2021-11-16 11:38:00,,0818.6,4.99,0.00,29.6,28.8,00.0,38.7,31.3,08.3,0000.0,0000.53,0003.48,0000.29
2021-11-16 11:39:00,,0818.7,4.99,0.00,29.6,28.7,00.0,38.7,31.3,08.4,0000.0,0000.56,0003.53,0000.29
2021-11-16 11:40:00,,0818.8,5.01,0.00,29.6,28.7,00.0,38.7,31.2,08.4,0000.0,0000.57,0003.54,0000.29
2021-11-16 11:41:00,,0818.9,5.00,0.00,29.6,28.7,00.0,38.7,31.3,08.5,0000.0,0000.56,0003.52,0000.30
2021-11-16 11:42:00,,0818.7,5.01,0.00,29.6,28.7,00.0,38.7,31.2,08.5,0000.0,0000.56,0003.58,0000.30
2021-11-16 11:43:00,,0818.6,4.99,0.00,29.6,28.7,00.0,38.7,31.2,08.4,0000.0,0000.53,0003.32,0000.30
2021-11-16 11:44:00,,0818.5,4.99,0.00,29.5,28.7,00.0,38.7,31.1,08.5,0000.0,0000.51,0002.55,0000.30
2021-11-16 11:45:00,,0818.4,5.00,0.00,29.5,28.7,00.0,38.6,31.2,08.6,0000.0,0000.50,0002.35,0000.30
2021-11-16 11:46:00,,0818.3,5.00,0.00,29.5,28.7,00.0,38.6,31.2,08.5,0000.0,0000.49,0001.06,0000.30
2021-11-16 11:47:00,,0818.1,5.01,0.00,29.6,28.7,00.0,38.6,31.2,08.5,0000.0,0000.48,0001.05,0000.30
2021-11-16 11:48:00,,0818.3,4.99,0.00,29.5,28.7,00.0,38.6,31.2,08.6,0000.0,0000.48,0001.03,0000.29
2021-11-16 11:49:00,,0818.3,5.00,0.00,29.5,28.7,00.0,38.6,31.2,08.6,0000.0,0000.46,0001.00,0000.29
2021-11-16 11:50:00,,0818.3,4.99,0.00,29.5,28.6,00.0,38.6,31.2,08.4,0000.0,0000.45,0000.96,0000.30
2021-11-16 11:51:00,,0818.4,5.00,0.00,29.5,28.6,00.0,38.6,31.2,08.3,0000.0,0000.47,0001.37,0000.30
2021-11-16 11:52:00,,0818.5,5.00,0.00,29.5,28.6,00.0,38.6,31.2,08.4,0000.0,0000.47,0002.02,0000.30
2021-11-16 11:53:00,,0818.4,5.01,0.00,29.5,28.7,00.0,38.6,31.2,08.5,0000.0,0000.49,0002.15,0000.29
2021-11-16 11:54:00,,0818.4,5.00,0.00,29.5,28.7,00.0,38.6,31.2,08.6,0000.0,0000.52,0002.21,0000.29
2021-11-16 11:55:00,,0818.3,4.99,0.00,29.5,28.7,00.0,38.6,31.2,08.5,0000.0,0000.54,0002.26,0000.28
2021-11-16 11:56:00,,0818.4,5.00,0.00,29.5,28.7,00.0,38.6,31.3,08.4,0000.0,0000.53,0002.26,0000.28
2021-11-16 11:57:00,,0818.4,5.00,0.00,29.6,28.6,00.0,38.6,31.3,08.3,0000.0,0000.49,0002.15,0000.28
2021-11-16 11:58:00,,0818.2,5.00,0.00,29.6,28.6,00.0,38.6,31.3,08.2,0000.0,0000.50,0002.15,0000.28
2021-11-16 11:59:00,,0817.9,5.00,0.00,29.6,28.6,00.0,38.6,31.2,08.1,0000.0,0000.59,0005.11,0000.29
